Weather History for KCRP - April, 2013

Change the Weather History Date:

Friday, April 19, 2013

  Actual Average Record
Temperature  
Mean Temperature 65 °F 73 °F  
Max Temperature 78 °F 82 °F 94 °F (1984)
Min Temperature 51 °F 64 °F 46 °F (2008)
Degree Days  
Heating Degree Days 0 0  
Month to date heating degree days 6 15  
Since 1 July heating degree days 522 896  
Cooling Degree Days 0 8  
Month to date cooling degree days 158 133  
Year to date cooling degree days 459 324  
Growing Degree Days 16 (Base 50)    
Moisture  
Dew Point 33 °F    
Average Humidity 35    
Maximum Humidity 55    
Minimum Humidity 14    
Precipitation  
Precipitation T in 0.07 in 0.93 in (1935)
Month to date precipitation 0.17 1.10  
Year to date precipitation 1.92 6.46  
Snow  
Snow 0.00 in - - ()
Month to date snowfall 0.0  
Since 1 July snowfall 0.0  
Snow Depth 0.00 in    
Sea Level Pressure  
Sea Level Pressure 30.20 in    
Wind  
Wind Speed 14 mph (NE)    
Max Wind Speed 31 mph    
Max Gust Speed 38 mph    
Visibility 10 miles    
Events Rain    
T = Trace of Precipitation, MM = Missing Value Source: NWS Daily Summary

Daily Weather History Graph

Daily Weather History Graph

Search for Another Location

Airport or City:

Trip Planner

Search our weather history database for the weather conditions in past years. The results will help you decide how hot, cold, wet, or windy it might be!

Date:

Astronomy

Apr. 19, 2013 Rise Set
Actual Time 7:01 AM CDT 7:57 PM CDT
Civil Twilight 6:36 AM CDT 8:21 PM CDT
Nautical Twilight 6:08 AM CDT 8:50 PM CDT
Astronomical Twilight 5:39 AM CDT 9:19 PM CDT
Moon 2:14 PM CDT (4/19) 2:44 AM CDT (4/19)
Length of Visible Light 13h 44m
Length of Day
12h 56m
First Quarter, 62% of the Moon is Illuminated
Apr 19
First Quarter
Apr 25
Full
May 2
Last Quarter
May 9
New
May 17
First Quarter

Hourly Weather History & Observations

Time (CDT) Temp. Dew Point Humidity Pressure Visibility Wind Dir Wind Speed Gust Speed Precip Events Conditions
12:51 AM 60.1 °F 45.0 °F 57% 30.08 in 10.0 mi NNE 15.0 mph 19.6 mph N/A   Clear
1:51 AM 61.0 °F 43.0 °F 52% 30.12 in 10.0 mi North 17.3 mph - N/A   Clear
2:51 AM 60.1 °F 41.0 °F 49% 30.11 in 10.0 mi North 19.6 mph - N/A   Clear
3:51 AM 59.0 °F 37.0 °F 44% 30.13 in 10.0 mi NNE 28.8 mph 35.7 mph N/A   Clear
4:51 AM 57.9 °F 37.0 °F 46% 30.14 in 10.0 mi NNE 24.2 mph 33.4 mph N/A   Partly Cloudy
5:51 AM 57.0 °F 35.1 °F 44% 30.17 in 10.0 mi NNE 23.0 mph 33.4 mph N/A   Mostly Cloudy
6:51 AM 55.9 °F 34.0 °F 44% 30.19 in 10.0 mi NNE 24.2 mph 29.9 mph N/A   Mostly Cloudy
7:51 AM 55.9 °F 33.1 °F 42% 30.22 in 10.0 mi North 17.3 mph 26.5 mph N/A   Scattered Clouds
8:51 AM 55.0 °F 35.1 °F 47% 30.27 in 10.0 mi North 17.3 mph - 0.00 in Rain Light Rain
9:51 AM 57.0 °F 32.0 °F 39% 30.28 in 10.0 mi North 16.1 mph - 0.00 in Rain Light Rain
10:51 AM 59.0 °F 28.0 °F 31% 30.31 in 10.0 mi North 16.1 mph - 0.00 in   Overcast
11:51 AM 62.1 °F 26.1 °F 25% 30.32 in 10.0 mi NNE 16.1 mph 24.2 mph N/A   Mostly Cloudy
12:51 PM 66.9 °F 25.0 °F 21% 30.30 in 10.0 mi NNE 11.5 mph 23.0 mph N/A   Scattered Clouds
1:51 PM 69.1 °F 26.1 °F 20% 30.27 in 10.0 mi NE 12.7 mph 16.1 mph N/A   Partly Cloudy
2:51 PM 73.0 °F 27.0 °F 18% 30.22 in 10.0 mi Variable 6.9 mph - N/A   Partly Cloudy
3:51 PM 77.0 °F 25.0 °F 15% 30.18 in 10.0 mi North 15.0 mph 21.9 mph N/A   Partly Cloudy
4:51 PM 75.9 °F 24.1 °F 15% 30.16 in 10.0 mi North 10.4 mph 18.4 mph N/A   Clear
5:51 PM 75.9 °F 24.1 °F 15% 30.15 in 10.0 mi NNE 8.1 mph 19.6 mph N/A   Clear
6:51 PM 73.0 °F 28.9 °F 20% 30.15 in 10.0 mi Calm Calm - N/A   Clear
7:33 PM 68.0 °F 37.4 °F 33% 30.16 in 10.0 mi SE 16.1 mph - N/A   Clear
7:51 PM 66.0 °F 37.9 °F 36% 30.17 in 10.0 mi SSE 13.8 mph - N/A   Clear
8:51 PM 63.0 °F 39.0 °F 41% 30.19 in 10.0 mi SSE 10.4 mph - N/A   Clear
9:51 PM 59.0 °F 37.9 °F 46% 30.21 in 10.0 mi SSE 5.8 mph - N/A   Clear
10:51 PM 55.0 °F 36.0 °F 49% 30.22 in 10.0 mi SSE 5.8 mph - N/A   Clear
11:51 PM 53.1 °F 36.0 °F 52% 30.22 in 10.0 mi SSE 5.8 mph - N/A   Clear